Location: Argonnex
(45.9500°N, 6.1333°E)
Time: 09:26:21
(UTC+00:00)

Cosmos 2266 Rocket - Pass Details

Date: 28 September 2023
Orbit: 933 x 1008 km, 82.9° (Epoch: 10 December)

Event Time Altitude Azimuth Distance (km) Brightness Sun altitude
Exits shadow 01:27:58 16° 107° (ESE) 2,327 6.1 -38.5°
Maximum altitude 01:30:15 20° 80° (E) 2,145 6.2 -38.3°
Drops below altitude 10° 01:34:34 10° 37° (NE) 2,780 7.1 -37.8°
Sets 01:37:50 0° 21° (NNE) 3,743 7.9 -37.4°
